NUSAT-31 (RUBY PAYNE-S) (52752 NORAD) Tracking and Keplerian Element Data

This shows tracking and keplerian element data for the satellite.

Feedback or suggestion? Click here.




ElementValue
Catalog52752
NameNUSAT-31 (RUBY PAYNE-S)
Epoch Orbit1548
Epoch Day248.1554175
Epoch Year2022
RAAN1.7036
Inclination97.5239
Eccentricity0.0008791
Argument of Perigee243.8694
Mean Anonmoly116.1633
Mean Motion15.12918125
Decay Rate4.692E-05
L11 52752U 22057W 22248.15541750 .00004692 00000+0 26988-3 0 9999
L22 52752 97.5239 1.7036 0008791 243.8694 116.1633 15.12918125 15480

Live tracking and technical data element details for NUSAT-31 (RUBY PAYNE-S) (NORAD 52752). NUSAT-31 (RUBY PAYNE-S) can be tracked NOW for your location showing map with azimuth and elevation plus other details from your city location.

Track the satellite on the map from your city or location and see movement details for azimuth, elevation, latitude, longitude, range, height, and movement on the map or in text.







IsCatalogInMostPopularTable: catalog: 52752, numindb: 7
Update: records affected: 1



GetName: 52752 NUSAT-31 (RUBY PAYNE-S)

Hit Count: updated at: Sun, 25 Sep 2022 07:32:37 GMT